WE3WEE Weather Reports


time (UTC)temp
C
wind
direction
speed
KPH
gust
KPH
rain 1hr
cm
rain 24hr
cm
rain mn
cm
humidity
%
barometer
mb
20260507030750 8 344 0.0 0.0 0.00 1.55 1.55 97 1010.6
20260507030247 8 344 0.0 0.0 0.00 1.55 1.55 97 1010.6
20260507025744 8 344 0.0 0.0 0.00 1.55 1.55 97 1011.7
20260507025241 8 344 0.0 0.0 0.00 1.55 1.55 97 1011.7
20260507024740 8 344 0.0 0.0 0.00 1.55 1.55 97 1011.7
20260507024236 8 344 0.0 0.0 0.00 1.55 1.55 97 1011.7
20260507023732 8 344 0.0 0.0 0.00 1.55 1.55 97 1011.7
20260507023229 8 344 0.0 0.0 0.00 1.55 1.55 97 1011.7
20260507022726 8 344 0.0 0.0 0.00 1.55 1.55 97 1011.7
20260507022222 8 344 0.0 0.0 0.00 1.55 1.55 97 1011.7
20260507021719 8 344 0.0 0.0 0.00 1.55 1.55 96 1011.7
20260507021214 8 344 0.0 0.0 0.00 1.55 1.55 96 1011.7
20260507020713 8 344 0.0 0.0 0.00 1.55 1.55 96 1011.7
20260507020208 8 344 0.0 0.0 0.00 1.55 1.55 96 1011.7
20260507015707 8 344 0.0 0.0 0.00 1.55 1.55 96 1011.7
20260507015204 9 344 0.0 0.0 0.00 1.55 1.55 96 1011.7
20260507014700 9 344 0.0 0.0 0.00 1.55 1.55 96 1011.7
20260507014156 9 344 0.0 0.0 0.00 1.55 1.55 96 1011.7
20260507013653 9 344 0.0 0.0 0.00 1.55 1.55 95 1011.7
20260507013150 9 344 0.0 0.0 0.00 1.55 1.55 95 1011.7
20260507012648 9 344 0.0 0.0 0.00 1.55 1.55 95 1011.7
20260507012143 9 344 0.0 0.0 0.00 1.55 1.55 95 1011.7
20260507011641 9 344 0.0 0.0 0.00 1.55 1.55 95 1011.7
20260507011137 9 344 0.0 0.0 0.00 1.55 1.55 94 1011.7
20260507010632 9 344 0.0 0.0 0.00 1.55 1.55 94 1011.7
20260507010128 9 344 0.0 0.0 0.00 1.55 1.55 94 1011.7
20260507005626 9 344 0.0 0.0 0.00 1.55 1.55 94 1011.7
20260507005122 9 344 0.0 0.0 0.00 1.55 1.55 93 1011.7
20260507004619 9 344 0.0 0.0 0.00 1.55 1.55 95 1011.7
20260507004117 9 344 0.0 0.0 0.00 1.55 1.55 94 1011.7
20260507003612 9 344 0.0 0.0 0.00 1.55 1.55 94 1010.6
20260507003107 9 344 0.0 0.0 0.00 1.55 1.55 94 1010.6
20260507002604 9 344 0.0 0.0 0.00 1.55 1.55 94 1010.6
20260507002100 9 344 0.0 0.0 0.00 1.55 1.55 94 1010.6
20260507001557 9 344 0.0 0.0 0.00 1.55 1.55 94 1010.6
20260507001054 9 344 0.0 0.0 0.00 1.55 1.55 94 1010.6
20260507000550 9 344 0.0 0.0 0.00 1.55 1.55 94 1010.6
20260507000046 9 344 0.0 0.0 0.00 1.55 1.55 94 1010.6
20260506235544 9 347 3.2 3.2 0.00 1.55 1.55 94 1010.6
20260506235039 9 18 3.2 3.2 0.00 1.55 1.55 94 1010.6
20260506234537 9 36 1.6 1.6 0.00 1.55 1.55 94 1010.6
20260506234034 10 19 0.0 0.0 0.00 1.55 1.55 94 1010.6
20260506233531 10 21 3.2 3.2 0.00 1.55 1.55 93 1009.6
20260506233027 10 20 3.2 3.2 0.00 1.55 1.55 94 1009.6
20260506232523 10 59 8.0 8.0 0.00 1.55 1.55 94 1009.6
20260506232019 10 19 1.6 1.6 0.00 1.55 1.55 94 1009.6
20260506231517 10 19 1.6 1.6 0.00 1.55 1.55 94 1009.6
20260506231015 10 8 0.0 0.0 0.00 1.55 1.55 94 1009.6
20260506230510 10 7 0.0 0.0 0.00 1.55 1.55 94 1009.6
20260506230009 10 7 0.0 0.0 0.00 1.55 1.55 94 1009.6
20260506225505 10 8 0.0 0.0 0.00 1.55 1.55 94 1009.6
20260506225001 10 7 3.2 3.2 0.00 1.55 1.55 93 1009.6
20260506224458 10 20 3.2 3.2 0.00 1.55 1.55 93 1009.6
20260506223955 10 8 0.0 0.0 0.00 1.55 1.55 93 1009.6
20260506223450 10 342 0.0 0.0 0.00 1.55 1.55 94 1009.6
20260506222947 10 357 3.2 3.2 0.00 1.55 1.55 93 1009.6
20260506222444 10 338 4.8 8.0 0.00 1.55 1.55 93 1009.6
20260506221935 10 341 6.4 8.0 0.00 1.55 1.55 94 1008.5
20260506221432 11 346 9.7 11.3 0.00 1.55 1.55 93 1008.5
20260506220930 11 357 4.8 4.8 0.00 1.55 1.55 94 1008.5
20260506220426 11 344 8.0 8.0 0.03 1.55 1.55 95 1008.5
20260506215922 11 328 4.8 6.4 0.03 1.55 1.55 94 1008.5
20260506215418 12 335 6.4 8.0 0.03 1.55 1.55 95 1008.5
20260506214914 12 340 8.0 9.7 0.00 1.52 1.52 94 1007.5
20260506214411 13 343 14.5 16.1 0.00 1.52 1.52 94 1007.5
20260506213909 15 29 9.7 11.3 0.00 1.52 1.52 95 1007.5
20260506213407 15 326 6.4 8.0 0.00 1.52 1.52 97 1007.5
20260506212904 15 320 0.0 0.0 0.00 1.52 1.52 98 1007.5
20260506212359 15 274 3.2 3.2 0.00 1.52 1.52 98 1007.5
20260506211854 15 74 0.0 0.0 0.00 1.52 1.52 98 1006.5
20260506211351 15 301 0.0 0.0 0.00 1.52 1.52 98 1006.5
20260506210848 15 261 3.2 3.2 0.00 1.52 1.52 98 1006.5
20260506210345 15 292 1.6 1.6 0.18 1.52 1.52 99 1006.5
20260506205842 15 249 0.0 0.0 0.15 1.50 1.50 99 1006.5
20260506205338 15 250 0.0 0.0 0.13 1.47 1.47 99 1006.5
20260506204835 15 240 0.0 0.0 0.08 1.42 1.42 98 1006.5
20260506204332 15 240 3.2 3.2 0.08 1.42 1.42 98 1006.5
20260506203830 15 250 3.2 3.2 0.05 1.40 1.40 98 1006.5
20260506203327 15 235 0.0 0.0 0.03 1.37 1.37 98 1006.5
20260506202823 15 249 3.2 3.2 0.03 1.37 1.37 98 1006.5
20260506202321 15 273 0.0 0.0 0.03 1.37 1.37 98 1006.5
20260506201817 15 240 0.0 0.0 0.03 1.37 1.37 97 1006.5
20260506201315 15 263 0.0 0.0 0.03 1.37 1.37 97 1006.5
20260506200811 15 0 0.0 0.0 0.00 1.35 1.35 97 1006.5
20260506200307 15 281 0.0 0.0 0.00 1.35 1.35 96 1006.5
20260506195803 16 262 0.0 0.0 0.00 1.35 1.35 96 1006.5
20260506195301 16 225 4.8 8.0 0.00 1.35 1.35 96 1006.5
20260506194758 16 227 0.0 0.0 0.00 1.35 1.35 95 1006.5
20260506194254 16 227 1.6 1.6 0.00 1.35 1.35 94 1006.5
20260506193752 16 219 3.2 11.3 0.00 1.35 1.35 95 1006.5
20260506193248 16 241 6.4 9.7 0.00 1.35 1.35 95 1006.5
20260506192745 16 228 12.9 14.5 0.00 1.35 1.35 95 1006.5
20260506192242 16 219 16.1 20.9 0.00 1.35 1.35 95 1006.5
20260506191738 16 225 8.0 9.7 0.00 1.35 1.35 95 1006.5
20260506191235 15 226 12.9 12.9 0.00 1.35 1.35 96 1006.5
20260506190732 15 225 11.3 16.1 0.00 1.35 1.35 96 1006.5
20260506190228 15 240 8.0 12.9 0.00 1.35 1.35 96 1006.5
20260506185726 15 239 14.5 16.1 0.00 1.35 1.35 96 1006.5
20260506185222 15 268 3.2 3.2 0.00 1.35 1.35 97 1006.5
20260506184720 15 226 9.7 9.7 0.00 1.35 1.35 97 1007.5
20260506184217 15 237 9.7 11.3 0.00 1.35 1.35 97 1007.5
20260506183713 15 244 4.8 8.0 0.00 1.35 1.35 97 1007.5
20260506183209 15 227 9.7 12.9 0.00 1.35 1.35 97 1007.5
20260506182707 15 228 11.3 11.3 0.00 1.35 1.35 98 1007.5
20260506182203 15 222 9.7 12.9 0.00 1.35 1.35 99 1007.5
20260506181701 15 241 8.0 9.7 0.00 1.35 1.35 99 1007.5
20260506181158 15 228 8.0 9.7 0.00 1.35 1.35 99 1007.5
20260506180655 15 255 3.2 4.8 0.00 1.35 1.35 99 1007.5
20260506180151 15 236 8.0 11.3 0.00 1.35 1.35 99 1007.5
20260506175648 15 256 11.3 17.7 0.00 1.35 1.35 99 1007.5
20260506175144 15 225 4.8 8.0 0.00 1.35 1.35 99 1007.5
20260506174638 15 251 9.7 11.3 0.00 1.35 1.35 99 1007.5
20260506174134 15 201 8.0 11.3 0.00 1.35 1.35 99 1007.5
20260506173632 15 249 12.9 12.9 0.00 1.35 1.35 99 1007.5
20260506173129 15 225 14.5 16.1 0.00 1.35 1.35 99 1007.5
20260506172626 14 206 8.0 8.0 0.00 1.35 1.35 99 1007.5
20260506172121 14 222 1.6 1.6 0.00 1.35 1.35 99 1007.5
20260506171619 14 226 4.8 8.0 0.00 1.35 1.35 99 1007.5
20260506171116 15 227 9.7 9.7 0.00 1.35 1.35 99 1007.5
20260506170614 15 227 3.2 3.2 0.00 1.35 1.35 99 1007.5
20260506170105 14 224 12.9 12.9 0.00 1.35 1.35 98 1007.5
20260506165603 14 219 9.7 9.7 0.05 1.32 1.32 98 1007.5
20260506165054 14 244 8.0 11.3 0.05 1.32 1.32 98 1007.5
20260506164551 14 238 9.7 11.3 0.03 1.30 1.30 98 1007.5
20260506164048 14 226 1.6 1.6 0.00 1.27 1.27 98 1007.5
20260506163544 14 219 1.6 1.6 0.00 1.27 1.27 98 1007.5
20260506163039 14 264 6.4 8.0 0.00 1.27 1.27 98 1007.5
20260506162536 14 240 9.7 11.3 0.00 1.27 1.27 98 1007.5
20260506162033 14 238 6.4 8.0 0.00 1.27 1.27 98 1007.5
20260506161531 14 227 4.8 6.4 0.00 1.27 1.27 98 1007.5
20260506161022 14 240 6.4 8.0 0.25 1.27 1.27 98 1007.5
20260506160520 14 235 4.8 4.8 0.23 1.24 1.24 97 1007.5
20260506160017 14 223 8.0 8.0 0.23 1.24 1.24 97 1007.5
20260506155515 14 234 3.2 4.8 0.20 1.22 1.22 97 1007.5
20260506153646 14 208 4.8 4.8 0.13 1.14 1.14 97 1007.5
20260506153143 14 200 6.4 8.0 0.13 1.14 1.14 97 1007.5
20260506152640 14 225 6.4 8.0 0.10 1.12 1.12 97 1007.5
20260506152138 14 234 3.2 3.2 0.08 1.09 1.09 97 1007.5
20260506151636 14 209 9.7 9.7 0.05 1.07 1.07 97 1007.5
20260506151132 14 238 6.4 8.0 0.41 1.02 1.02 97 1007.5
20260506150630 14 245 4.8 4.8 0.36 0.97 0.97 98 1007.5
20260506150126 14 236 9.7 14.5 0.30 0.91 0.91 97 1007.5
20260506145623 14 226 4.8 8.0 0.25 0.86 0.86 97 1007.5
20260506145120 14 215 3.2 3.2 0.23 0.84 0.84 97 1007.5
20260506144618 14 226 4.8 4.8 0.18 0.79 0.79 97 1007.5
20260506144114 14 225 3.2 4.8 0.15 0.76 0.76 97 1007.5
20260506143612 14 210 6.4 6.4 0.10 0.71 0.71 96 1007.5
20260506143110 14 234 8.0 8.0 0.08 0.69 0.69 96 1007.5
20260506142608 14 208 9.7 11.3 0.05 0.66 0.66 96 1007.5
20260506142106 14 225 4.8 4.8 0.03 0.64 0.64 96 1007.5
20260506141603 14 227 3.2 4.8 0.03 0.64 0.64 96 1007.5
20260506141101 14 209 0.0 0.0 0.30 0.61 0.61 97 1008.5
20260506140558 14 203 0.0 0.0 0.28 0.58 0.58 97 1008.5
20260506140055 14 226 0.0 0.0 0.25 0.56 0.56 97 1008.5
20260506135552 14 224 0.0 0.0 0.23 0.53 0.53 98 1007.5
20260506135049 14 240 0.0 0.0 0.23 0.53 0.53 98 1007.5
20260506134545 13 241 0.0 0.0 0.20 0.51 0.51 98 1007.5
20260506134041 13 240 0.0 0.0 0.18 0.48 0.48 98 1007.5
20260506133538 13 240 0.0 0.0 0.18 0.48 0.48 98 1007.5
20260506133035 13 240 0.0 0.0 0.15 0.46 0.46 98 1007.5
20260506132533 13 242 0.0 0.0 0.13 0.43 0.43 97 1008.5
20260506132030 13 242 0.0 0.0 0.08 0.38 0.38 97 1008.5
20260506131527 13 242 0.0 0.0 0.03 0.33 0.33 97 1008.5
20260506131023 13 241 0.0 0.0 0.30 0.30 0.30 96 1008.5
20260506130520 13 241 0.0 0.0 0.25 0.25 0.25 96 1008.5
20260506130018 14 241 0.0 0.0 0.23 0.23 0.23 95 1008.5
20260506125516 14 241 0.0 0.0 0.18 0.18 0.18 95 1008.5
20260506125013 14 241 0.0 0.0 0.15 0.15 0.15 94 1008.5
20260506124511 13 249 0.0 0.0 0.13 0.13 0.13 93 1008.5
20260506124009 13 242 0.0 0.0 0.10 0.10 0.10 93 1008.5
20260506123506 13 250 0.0 0.0 0.10 0.10 0.10 93 1008.5
20260506123004 13 332 0.0 0.0 0.08 0.08 0.08 94 1008.5
20260506122501 13 332 0.0 0.0 0.05 0.05 0.05 94 1008.5
20260506121959 13 332 0.0 0.0 0.03 0.03 0.03 94 1008.5
20260506121456 13 332 0.0 0.0 0.03 0.03 0.03 93 1008.5
20260506120952 13 332 0.0 0.0 0.00 0.00 0.00 92 1008.5
20260506120450 13 332 0.0 0.0 0.00 0.00 0.00 92 1008.5
20260506115947 13 332 0.0 0.0 0.00 0.00 0.00 92 1008.5
20260506115445 13 332 0.0 0.0 0.00 0.00 0.00 92 1008.5
20260506114943 14 332 0.0 0.0 0.00 0.00 0.00 91 1008.5
20260506114440 14 332 0.0 0.0 0.00 0.00 0.00 90 1008.5
20260506113939 14 332 0.0 0.0 0.00 0.00 0.00 87 1008.5
20260506113436 14 332 0.0 0.0 0.00 0.00 0.00 89 1007.5
20260506112932 14 332 0.0 0.0 0.00 0.00 0.00 87 1007.5
20260506112430 14 332 0.0 0.0 0.00 0.00 0.00 86 1007.5
20260506111927 14 332 0.0 0.0 0.00 0.00 0.00 87 1007.5
20260506111425 14 332 0.0 0.0 0.00 0.00 0.00 86 1007.5
20260506110922 14 332 0.0 0.0 0.00 0.00 0.00 86 1007.5
20260506110420 14 332 0.0 0.0 0.00 0.00 0.00 85 1007.5
20260506105916 14 332 0.0 0.0 0.00 0.00 0.00 85 1007.5
20260506105413 14 332 0.0 0.0 0.00 0.00 0.00 86 1007.5
20260506104910 14 332 0.0 0.0 0.00 0.00 0.00 82 1007.5
20260506104408 14 332 0.0 0.0 0.00 0.00 0.00 84 1007.5
20260506103906 14 332 0.0 0.0 0.00 0.00 0.00 83 1007.5
20260506103403 14 332 0.0 0.0 0.00 0.00 0.00 86 1007.5
20260506102900 14 332 0.0 0.0 0.00 0.00 0.00 85 1007.5
20260506102358 14 332 0.0 0.0 0.00 0.00 0.00 83 1007.5
20260506101855 14 10 0.0 0.0 0.00 0.00 0.00 81 1006.5
20260506101351 13 10 0.0 0.0 0.00 0.00 0.00 81 1006.5
20260506100849 13 10 0.0 0.0 0.00 0.00 0.00 84 1006.5
20260506100347 13 10 0.0 0.0 0.00 0.00 0.00 85 1007.5
20260506095845 13 10 0.0 0.0 0.00 0.00 0.00 86 1007.5
20260506095342 13 10 0.0 0.0 0.00 0.00 0.00 85 1007.5
20260506094839 13 10 0.0 0.0 0.00 0.00 0.00 84 1007.5
20260506094338 13 10 0.0 0.0 0.00 0.00 0.00 84 1007.5
20260506093835 13 10 0.0 0.0 0.00 0.00 0.00 85 1007.5
20260506093332 13 10 0.0 0.0 0.00 0.00 0.00 87 1007.5
20260506092830 13 10 0.0 0.0 0.00 0.00 0.00 87 1007.5
20260506092328 13 10 0.0 0.0 0.00 0.00 0.00 86 1007.5
20260506091824 -17 0.0 0.0 0.00 0.00 0.00 1007.5
20260506091322 14 10 0.0 0.0 0.00 0.00 0.00 83 1007.5
20260506090819 14 10 0.0 0.0 0.00 0.00 0.00 83 1007.5
20260506090317 14 10 0.0 0.0 0.00 0.00 0.00 83 1007.5
20260506085813 13 10 0.0 0.0 0.00 0.00 0.00 84 1007.5
20260506085309 13 10 0.0 0.0 0.00 0.00 0.00 84 1007.5
20260506084806 -17 0.0 0.0 0.00 0.00 0.00 1007.5
20260506084302 13 18 0.0 0.0 0.00 0.00 0.00 84 1007.5
20260506083759 13 18 0.0 0.0 0.00 0.00 0.00 84 1007.5
20260506083257 13 18 0.0 0.0 0.00 0.00 0.00 84 1007.5
20260506082754 14 18 0.0 0.0 0.00 0.00 0.00 85 1007.5
20260506082250 -17 0.0 0.0 0.00 0.00 0.00 1007.5
20260506081747 -17 0.0 0.0 0.00 0.00 0.00 1007.5
20260506081245 14 18 0.0 0.0 0.00 0.00 0.00 85 1007.5
20260506080743 14 18 0.0 0.0 0.00 0.00 0.00 85 1007.5
20260506080239 14 18 0.0 0.0 0.00 0.00 0.00 85 1007.5
20260506073223 14 316 0.0 0.0 0.00 0.00 0.00 75 1007.5
20260506072720 13 291 0.0 0.0 0.00 0.00 0.00 77 1007.5
20260506072218 -17 0.0 0.0 0.00 0.00 0.00 1007.5
20260506071715 -17 0.0 0.0 0.00 0.00 0.00 1007.5
20260506071213 -17 0.0 0.0 0.00 0.00 0.00 1007.5
20260506070709 -17 0.0 0.0 0.00 0.00 0.00 1007.5
20260506070207 -17 0.0 0.0 0.00 0.00 0.00 1008.5
20260506062143 -17 0.0 0.0 0.00 0.00 0.00 1008.5
20260506061639 -17 0.0 0.0 0.00 0.00 0.00 1008.5
20260506061137 -17 0.0 0.0 0.00 0.00 0.00 1008.5
20260506060635 -17 0.0 0.0 0.00 0.00 0.00 1008.5
20260506060132 -17 0.0 0.0 0.00 0.00 0.00 1008.5
20260506051104 -17 0.0 0.0 0.00 0.00 0.00 1008.5
20260506050602 -17 0.0 0.0 0.00 0.00 0.00 1008.5
20260506045052 -17 0.0 0.0 0.00 0.00 0.00 1008.5
20260506044550 -17 0.0 0.0 0.00 0.00 0.00 1008.5
20260506044046 -17 0.0 0.0 0.00 0.00 0.00 1008.5
20260506043544 12 291 0.0 0.0 0.00 0.00 0.00 86 1008.5
20260506043042 12 291 0.0 0.0 0.00 0.00 0.00 86 1008.5
20260506042541 12 291 0.0 0.0 0.00 0.00 0.00 86 1008.5
20260506042038 12 291 0.0 0.0 0.00 0.00 0.00 86 1008.5
20260506041537 12 291 0.0 0.0 0.00 0.00 0.00 86 1008.5
20260506041033 12 291 0.0 0.0 0.00 0.00 0.00 87 1009.6
20260506040531 12 291 0.0 0.0 0.00 0.00 0.00 86 1009.6
20260506040027 12 291 0.0 0.0 0.00 0.00 0.00 86 1009.6
20260506035524 12 291 0.0 0.0 0.00 0.00 0.00 86 1008.5
20260506035021 12 291 0.0 0.0 0.00 0.00 0.00 86 1008.5
20260506034518 12 291 0.0 0.0 0.00 0.00 0.00 86 1008.5
20260506034015 12 291 0.0 0.0 0.00 0.00 0.00 86 1008.5
20260506033512 13 291 0.0 0.0 0.00 0.00 0.00 85 1008.5
20260506033009 13 291 0.0 0.0 0.00 0.00 0.00 85 1008.5
20260506032506 13 291 0.0 0.0 0.00 0.00 0.00 83 1008.5
20260506032003 13 291 0.0 0.0 0.00 0.00 0.00 82 1008.5
20260506031501 13 291 0.0 0.0 0.00 0.00 0.00 82 1008.5